Schneifelwetter: Wetterstation Hallschlag, 537 m . NN
Wetterdaten: Montag, 23.03.2009
Datum Zeit Temp. A. Temp. 2 Feuchte A. Luftdruck Regen Wind Richtung Richtung Sonnenschein Helligkeit T Regen Taupunkt Windchill
23.03.2009 00:10 3,1 C 3,0 C 86 % 1022 hPa 0,0 l/m 18,1 km/h (3 Bft) W-SW22.5 250 0 min 0 lux 0,00 min 1,0 C -4,8 C
23.03.2009 00:25 3,2 C 3,3 C 86 % 1022 hPa 0,0 l/m 17,9 km/h (3 Bft) W-SW22.5 250 0 min 0 lux 0,00 min 1,1 C -4,6 C
23.03.2009 00:40 3,2 C 3,3 C 86 % 1022 hPa 0,0 l/m 12,5 km/h (3 Bft) W-SW22.5 255 0 min 0 lux 0,00 min 1,1 C -1,6 C
23.03.2009 00:55 3,2 C 3,3 C 86 % 1021 hPa 0,0 l/m 13,8 km/h (3 Bft) W-SW 240 0 min 0 lux 0,00 min 1,1 C -2,4 C
23.03.2009 01:10 3,3 C 3,4 C 86 % 1021 hPa 0,0 l/m 13,8 km/h (3 Bft) W-SW22.5 245 0 min 0 lux 0,00 min 1,2 C -2,3 C
23.03.2009 01:25 3,4 C 3,4 C 87 % 1021 hPa 0,0 l/m 20,7 km/h (4 Bft) W-SW45 245 0 min 0 lux 0,00 min 1,4 C -5,5 C
23.03.2009 01:40 3,5 C 3,7 C 87 % 1021 hPa 0,0 l/m 30,6 km/h (5 Bft) W-SW22.5 255 0 min 0 lux 0,00 min 1,5 C -8,6 C
23.03.2009 01:55 3,6 C 3,8 C 87 % 1021 hPa 0,0 l/m 26,1 km/h (4 Bft) W-SW22.5 250 0 min 0 lux 0,00 min 1,6 C -7,2 C
23.03.2009 02:10 3,7 C 3,8 C 87 % 1020 hPa 0,0 l/m 20,9 km/h (4 Bft) W-SW22.5 255 0 min 0 lux 0,00 min 1,7 C -5,2 C
23.03.2009 02:25 3,8 C 3,9 C 87 % 1020 hPa 0,0 l/m 24,0 km/h (4 Bft) W22.5 260 0 min 0 lux 0,00 min 1,8 C -6,2 C
23.03.2009 02:40 3,9 C 4,2 C 88 % 1020 hPa 0,0 l/m 31,6 km/h (5 Bft) W45 265 0 min 0 lux 0,00 min 2,1 C -8,3 C
23.03.2009 02:55 4,0 C 4,2 C 89 % 1020 hPa 0,0 l/m 31,8 km/h (5 Bft) W22.5 265 0 min 0 lux 0,00 min 2,4 C -8,2 C
23.03.2009 03:10 4,0 C 4,2 C 89 % 1019 hPa 0,0 l/m 30,9 km/h (5 Bft) W22.5 260 0 min 0 lux 0,00 min 2,4 C -8,0 C
23.03.2009 03:25 3,9 C 4,2 C 89 % 1019 hPa 0,0 l/m 31,9 km/h (5 Bft) W45 265 0 min 0 lux 0,00 min 2,3 C -8,4 C
23.03.2009 03:40 3,9 C 4,2 C 89 % 1019 hPa 0,0 l/m 25,0 km/h (4 Bft) W45 260 0 min 0 lux 0,00 min 2,3 C -6,4 C
23.03.2009 03:55 3,9 C 4,1 C 89 % 1019 hPa 0,0 l/m 19,8 km/h (3 Bft) W22.5 260 0 min 0 lux 0,00 min 2,3 C -4,5 C
23.03.2009 04:10 3,9 C 4,1 C 89 % 1018 hPa 0,0 l/m 17,1 km/h (3 Bft) W22.5 265 0 min 0 lux 0,00 min 2,3 C -3,3 C
23.03.2009 04:25 3,9 C 4,1 C 89 % 1018 hPa 0,0 l/m 24,4 km/h (4 Bft) W22.5 260 0 min 0 lux 0,00 min 2,3 C -6,2 C
23.03.2009 04:40 3,9 C 4,1 C 90 % 1018 hPa 0,0 l/m 23,3 km/h (4 Bft) W22.5 260 0 min 0 lux 0,00 min 2,4 C -5,9 C
23.03.2009 04:55 3,8 C 4,1 C 90 % 1018 hPa 0,0 l/m 25,6 km/h (4 Bft) W-SW22.5 255 0 min 0 lux 0,00 min 2,3 C -6,8 C
23.03.2009 05:10 3,8 C 4,0 C 90 % 1018 hPa 0,0 l/m 21,3 km/h (4 Bft) W-SW22.5 255 0 min 0 lux 0,00 min 2,3 C -5,2 C
23.03.2009 05:25 3,7 C 3,9 C 90 % 1017 hPa 0,0 l/m 31,5 km/h (5 Bft) W-SW22.5 250 0 min 0 lux 0,00 min 2,2 C -8,6 C
23.03.2009 05:40 3,6 C 3,8 C 91 % 1017 hPa 0,0 l/m 29,9 km/h (5 Bft) W45 260 0 min 0 lux 0,00 min 2,3 C -8,3 C
23.03.2009 05:55 3,6 C 3,8 C 91 % 1017 hPa 0,0 l/m 32,9 km/h (5 Bft) W-SW45 250 0 min 0 lux 0,00 min 2,3 C -9,1 C
23.03.2009 06:10 3,5 C 3,8 C 91 % 1017 hPa 0,0 l/m 29,1 km/h (5 Bft) W-SW22.5 245 0 min 0 lux 0,00 min 2,2 C -8,2 C
23.03.2009 06:25 3,5 C 3,7 C 92 % 1017 hPa 0,0 l/m 27,1 km/h (4 Bft) W-SW22.5 250 0 min 87 lux 0,00 min 2,3 C -7,6 C
23.03.2009 06:40 3,5 C 3,7 C 92 % 1016 hPa 0,0 l/m 37,9 km/h (5 Bft) W-SW22.5 255 0 min 373 lux 0,00 min 2,3 C -10,3 C
23.03.2009 06:55 3,5 C 3,8 C 92 % 1016 hPa 0,0 l/m 33,1 km/h (5 Bft) W-SW22.5 250 0 min 865 lux 0,00 min 2,3 C -9,3 C
23.03.2009 07:10 3,6 C 3,9 C 92 % 1016 hPa 0,0 l/m 36,7 km/h (5 Bft) W-SW45 255 0 min 1,38 klux 0,00 min 2,4 C -9,9 C
23.03.2009 07:25 3,7 C 4,0 C 92 % 1016 hPa 0,0 l/m 34,7 km/h (5 Bft) W-SW22.5 255 0 min 2,96 klux 0,00 min 2,5 C -9,4 C
23.03.2009 07:40 3,8 C 4,1 C 91 % 1016 hPa 0,0 l/m 41,2 km/h (6 Bft) W-SW45 255 0 min 2,56 klux 0,00 min 2,5 C -10,5 C
23.03.2009 08:02 3,9 C 4,2 C 92 % 1015 hPa 0,0 l/m 39,8 km/h (6 Bft) W-SW22.5 250 0 min 3,65 klux 0,00 min 2,7 C -10,1 C
23.03.2009 08:16 4,0 C 4,3 C 91 % 1015 hPa 0,0 l/m 32,0 km/h (5 Bft) W-SW45 255 0 min 4,29 klux 0,00 min 2,7 C -8,3 C
23.03.2009 08:31 4,1 C 4,4 C 90 % 1015 hPa 0,0 l/m 36,5 km/h (5 Bft) W-SW45 250 0 min 4,06 klux 0,00 min 2,6 C -9,2 C
23.03.2009 08:46 4,2 C 4,4 C 90 % 1015 hPa 0,0 l/m 38,3 km/h (5 Bft) W-SW22.5 255 0 min 5,90 klux 0,00 min 2,7 C -9,4 C
23.03.2009 09:01 4,3 C 4,4 C 88 % 1015 hPa 0,0 l/m 39,1 km/h (6 Bft) W-SW22.5 245 0 min 5,40 klux 0,00 min 2,5 C -9,4 C
23.03.2009 09:16 4,3 C 4,5 C 88 % 1015 hPa 0,0 l/m 39,0 km/h (6 Bft) W45 260 0 min 4,97 klux 0,00 min 2,5 C -9,4 C
23.03.2009 09:31 4,3 C 4,6 C 89 % 1015 hPa 0,0 l/m 41,9 km/h (6 Bft) W-SW45 255 0 min 7,06 klux 0,00 min 2,7 C -9,9 C
23.03.2009 09:47 4,6 C 5,0 C 89 % 1014 hPa 0,0 l/m 45,7 km/h (6 Bft) W-SW45 250 0 min 13,5 klux 0,00 min 2,9 C -10,0 C
23.03.2009 10:01 4,9 C 5,3 C 87 % 1014 hPa 0,0 l/m 45,8 km/h (6 Bft) W-SW45 250 0 min 18,0 klux 0,00 min 2,9 C -9,6 C
23.03.2009 10:16 5,3 C 5,4 C 85 % 1014 hPa 0,0 l/m 49,1 km/h (6 Bft) W-SW22.5 250 0 min 16,4 klux 0,00 min 3,0 C -9,4 C
23.03.2009 10:31 5,5 C 5,7 C 83 % 1013 hPa 0,0 l/m 43,4 km/h (6 Bft) W-SW22.5 255 0 min 21,5 klux 0,00 min 2,8 C -8,3 C
23.03.2009 10:46 5,4 C 5,5 C 83 % 1013 hPa 0,0 l/m 50,3 km/h (7 Bft) W-SW45 250 0 min 12,5 klux 0,00 min 2,7 C -9,4 C
23.03.2009 11:01 5,2 C 5,6 C 83 % 1013 hPa 0,0 l/m 50,4 km/h (7 Bft) W45 265 0 min 16,4 klux 0,00 min 2,6 C -9,7 C
23.03.2009 11:16 5,3 C 5,6 C 82 % 1012 hPa 0,0 l/m 50,3 km/h (7 Bft) W22.5 260 0 min 12,8 klux 0,00 min 2,5 C -9,6 C
23.03.2009 11:31 5,9 C 5,8 C 81 % 1012 hPa 0,0 l/m 51,0 km/h (7 Bft) W-SW22.5 255 0 min 41,9 klux 0,00 min 2,9 C -8,7 C
23.03.2009 11:47 6,4 C 7,0 C 77 % 1012 hPa 0,0 l/m 54,7 km/h (7 Bft) W-SW45 255 0 min 25,2 klux 0,00 min 2,7 C -8,3 C
23.03.2009 12:01 6,8 C 7,2 C 76 % 1011 hPa 0,0 l/m 43,9 km/h (6 Bft) W-SW22.5 255 0 min 38,8 klux 0,00 min 2,9 C -6,5 C
23.03.2009 12:16 7,0 C 7,3 C 77 % 1011 hPa 0,0 l/m 47,5 km/h (6 Bft) W-SW22.5 255 0 min 28,2 klux 0,00 min 3,2 C -6,6 C
23.03.2009 12:31 7,0 C 7,2 C 76 % 1010 hPa 0,0 l/m 50,2 km/h (7 Bft) W-SW67.5 245 0 min 23,6 klux 0,00 min 3,1 C -6,9 C
23.03.2009 12:46 7,6 C 7,7 C 75 % 1010 hPa 0,0 l/m 42,7 km/h (6 Bft) W22.5 260 0 min 42,5 klux 0,00 min 3,5 C -5,1 C
23.03.2009 13:01 8,2 C 8,8 C 73 % 1009 hPa 0,0 l/m 57,4 km/h (7 Bft) W45 260 0 min 46,3 klux 0,00 min 3,7 C -5,8 C
23.03.2009 13:16 8,0 C 8,8 C 70 % 1009 hPa 0,0 l/m 53,6 km/h (7 Bft) W22.5 260 0 min 28,0 klux 0,00 min 2,9 C -5,7 C
23.03.2009 13:32 8,2 C 8,8 C 70 % 1009 hPa 0,0 l/m 51,3 km/h (7 Bft) W22.5 265 0 min 31,1 klux 0,00 min 3,1 C -5,2 C
23.03.2009 13:46 8,4 C 8,9 C 69 % 1008 hPa 0,0 l/m 58,8 km/h (7 Bft) W45 260 0 min 33,1 klux 0,00 min 3,0 C -5,6 C
23.03.2009 14:01 8,2 C 8,7 C 70 % 1008 hPa 0,0 l/m 50,8 km/h (7 Bft) W45 260 0 min 36,6 klux 0,00 min 3,1 C -5,2 C
23.03.2009 14:16 8,2 C 8,7 C 69 % 1008 hPa 0,0 l/m 51,6 km/h (7 Bft) W-SW22.5 255 0 min 44,1 klux 0,00 min 2,9 C -5,2 C
23.03.2009 14:31 7,7 C 8,3 C 72 % 1008 hPa 0,0 l/m 43,8 km/h (6 Bft) W45 260 0 min 14,7 klux 0,00 min 3,0 C -5,1 C
23.03.2009 14:46 6,8 C 8,3 C 79 % 1008 hPa 0,0 l/m 44,1 km/h (6 Bft) W-SW45 250 0 min 14,5 klux 0,00 min 3,4 C -6,5 C
23.03.2009 15:01 6,2 C 6,1 C 85 % 1008 hPa 0,0 l/m 43,9 km/h (6 Bft) W22.5 265 0 min 9,7 klux 0,00 min 3,9 C -7,4 C
23.03.2009 15:16 5,8 C 5,7 C 87 % 1008 hPa 0,0 l/m 45,7 km/h (6 Bft) W45 260 0 min 17,7 klux 0,00 min 3,8 C -8,2 C
23.03.2009 15:32 6,0 C 5,7 C 88 % 1007 hPa 2,4 l/m 42,7 km/h (6 Bft) W45 260 0 min 29,2 klux 16,00 min 4,2 C -7,5 C
23.03.2009 15:46 5,7 C 5,6 C 88 % 1007 hPa 0,0 l/m 35,9 km/h (5 Bft) W45 260 0 min 9,1 klux 0,00 min 3,9 C -6,7 C
23.03.2009 16:01 5,3 C 5,5 C 90 % 1007 hPa 0,3 l/m 44,4 km/h (6 Bft) W45 260 0 min 7,75 klux 15,00 min 3,8 C -8,8 C
23.03.2009 16:16 5,2 C 5,5 C 90 % 1007 hPa 0,3 l/m 42,3 km/h (6 Bft) W45 260 0 min 14,3 klux 15,00 min 3,7 C -8,6 C
23.03.2009 16:31 5,2 C 5,1 C 90 % 1006 hPa 0,3 l/m 38,8 km/h (5 Bft) W22.5 260 0 min 10,6 klux 15,00 min 3,7 C -8,0 C
23.03.2009 16:46 4,8 C 5,1 C 91 % 1006 hPa 0,3 l/m 35,2 km/h (5 Bft) W22.5 260 0 min 2,99 klux 15,00 min 3,5 C -7,9 C
23.03.2009 17:01 4,7 C 5,1 C 93 % 1006 hPa 0,9 l/m 38,8 km/h (5 Bft) W22.5 260 0 min 2,92 klux 15,00 min 3,7 C -8,7 C
23.03.2009 17:17 4,5 C 5,1 C 93 % 1005 hPa 0,3 l/m 36,9 km/h (5 Bft) W45 260 0 min 2,38 klux 16,00 min 3,5 C -8,7 C
23.03.2009 17:31 4,6 C 5,1 C 94 % 1005 hPa 0,9 l/m 47,4 km/h (6 Bft) W45 260 0 min 1,48 klux 14,00 min 3,7 C -10,3 C
23.03.2009 17:46 4,5 C 4,5 C 94 % 1005 hPa 0,0 l/m 38,6 km/h (5 Bft) W45 260 0 min 1,91 klux 0,00 min 3,6 C -9,0 C
23.03.2009 18:01 4,4 C 4,5 C 94 % 1004 hPa 0,0 l/m 41,6 km/h (6 Bft) W-SW45 255 0 min 1,57 klux 0,00 min 3,5 C -9,7 C
23.03.2009 18:16 4,4 C 4,5 C 94 % 1004 hPa 0,0 l/m 46,3 km/h (6 Bft) W45 260 0 min 1,57 klux 0,00 min 3,5 C -10,4 C
23.03.2009 18:31 4,3 C 4,3 C 95 % 1004 hPa 0,0 l/m 48,3 km/h (6 Bft) W-SW45 255 0 min 627 lux 0,00 min 3,6 C -10,8 C
23.03.2009 18:46 4,3 C 4,3 C 95 % 1003 hPa 2,1 l/m 43,3 km/h (6 Bft) W45 260 0 min 223 lux 15,00 min 3,6 C -10,1 C
23.03.2009 19:01 4,2 C 4,2 C 95 % 1003 hPa 0,0 l/m 47,7 km/h (6 Bft) W45 260 0 min 42 lux 0,00 min 3,5 C -10,9 C
23.03.2009 19:17 4,0 C 4,1 C 95 % 1003 hPa 0,0 l/m 41,5 km/h (6 Bft) W45 265 0 min 29 lux 0,00 min 3,3 C -10,3 C
23.03.2009 19:31 3,9 C 3,8 C 94 % 1003 hPa 0,0 l/m 42,9 km/h (6 Bft) W-SW45 255 0 min 0 lux 0,00 min 3,0 C -10,7 C
23.03.2009 19:46 2,7 C 3,8 C 91 % 1004 hPa 0,0 l/m 40,6 km/h (6 Bft) W45 275 0 min 0 lux 0,00 min 1,4 C -12,0 C
23.03.2009 20:01 1,8 C 1,9 C 91 % 1004 hPa 0,0 l/m 15,3 km/h (3 Bft) W-NW45 285 0 min 0 lux 0,00 min 0,5 C -5,0 C
23.03.2009 20:16 1,0 C 1,9 C 92 % 1004 hPa 0,0 l/m 10,2 km/h (2 Bft) W22.5 265 0 min 0 lux 0,00 min -0,2 C -2,5 C
23.03.2009 20:31 0,7 C 0,8 C 94 % 1004 hPa 0,0 l/m 13,9 km/h (3 Bft) W22.5 275 0 min 0 lux 0,00 min -0,2 C -5,5 C
23.03.2009 20:32 0,7 C 0,8 C 94 % 1004 hPa 0,0 l/m 13,9 km/h (3 Bft) W22.5 275 0 min 0 lux 0,00 min -0,2 C -5,5 C
23.03.2009 20:46 0,5 C 0,8 C 95 % 1004 hPa 0,0 l/m 12,6 km/h (3 Bft) W45 270 0 min 0 lux 0,00 min -0,2 C -4,8 C
23.03.2009 21:01 0,6 C 0,8 C 95 % 1004 hPa 0,0 l/m 19,0 km/h (3 Bft) W22.5 260 0 min 0 lux 0,00 min -0,1 C -8,4 C
23.03.2009 21:16 0,5 C 0,8 C 95 % 1004 hPa 0,0 l/m 19,0 km/h (3 Bft) W22.5 260 0 min 0 lux 0,00 min -0,2 C -8,5 C
23.03.2009 21:31 0,6 C 0,2 C 95 % 1003 hPa 0,0 l/m 0,0 km/h (0 Bft) W45 265 0 min 0 lux 0,00 min -0,1 C 0,6 C
23.03.2009 21:46 0,6 C 0,1 C 95 % 1004 hPa 0,0 l/m 0,0 km/h (0 Bft) W22.5 265 0 min 0 lux 0,00 min -0,1 C 0,6 C
23.03.2009 22:01 0,5 C 0,1 C 95 % 1004 hPa 0,0 l/m 24,9 km/h (4 Bft) W22.5 260 0 min 0 lux 0,00 min -0,2 C -11,0 C
23.03.2009 22:17 0,4 C 0,1 C 95 % 1004 hPa 0,0 l/m 24,1 km/h (4 Bft) W-SW22.5 255 0 min 0 lux 0,00 min -0,3 C -10,8 C
23.03.2009 22:31 0,3 C 0,0 C 95 % 1004 hPa 0,0 l/m 14,6 km/h (3 Bft) W45 260 0 min 0 lux 0,00 min -0,4 C -6,4 C
23.03.2009 22:46 0,1 C -0,2 C 95 % 1003 hPa 0,0 l/m 29,1 km/h (5 Bft) W22.5 270 0 min 0 lux 0,00 min -0,6 C -13,0 C
23.03.2009 23:01 0,1 C -0,3 C 95 % 1003 hPa 0,0 l/m 23,0 km/h (4 Bft) W22.5 260 0 min 0 lux 0,00 min -0,6 C -10,8 C
23.03.2009 23:16 -0,2 C -0,6 C 94 % 1003 hPa 0,0 l/m 25,1 km/h (4 Bft) W 260 0 min 0 lux 0,00 min -1,0 C -12,0 C
23.03.2009 23:31 -0,2 C -0,6 C 94 % 1003 hPa 0,0 l/m 32,5 km/h (5 Bft) W 260 0 min 0 lux 0,00 min -1,0 C -14,4 C
23.03.2009 23:31 -0,2 C -0,6 C 94 % 1022 hPa 0,0 l/m 32,5 km/h (5 Bft) W 260 0 min 0 lux 0,00 min -1,0 C -14,4 C
23.03.2009 23:46 -0,2 C -0,8 C 94 % 1003 hPa 0,0 l/m 20,1 km/h (4 Bft) W 260 0 min 0 lux 0,00 min -1,0 C -9,9 C
_ Min-Zeit 23:16 23:46 13:46 18:46 - 21:31 - - - - - 23:16 23:31
Minimum _ -0,2 C -0,8 C 69 % 1003 hPa - 0,0 km/h (0 Bft) - - - - - -1,0 C -14,4 C
_ Max-Zeit 13:46 13:46 18:31 00:10 15:32 13:46 - - 00:10 13:01 15:32 15:32 21:31
Maximum _ 8,4 C 8,9 C 95 % 1022 hPa 2,4 l/m 58,8 km/h
W (7 Bft)
- - 0 min 46,3 klux 16,00 min 4,2 C 0,6 C
Durchschnitt _ 4,0 C 4,1 C 88 % 1012 hPa #7,8 l/m 33,9 km/h (5 Bft) W - #0 min. 7,40 klux #2:16 h 2,1 C -7,8 C